Location: Unspecified
(0.0000°N, 0.0000°E)
Time: 12:39:23
(UTC+00:00)

SEEDS - Pass Details

Date: 25 September 2021
Orbit: 585 x 601 km, 97.6° (Epoch: 15 October)

Event Time Altitude Azimuth Distance (km) Brightness Sun altitude
Rises 05:18:23 0° 332° (NNW) 2,833 ? -8.3°
Drops below altitude 10° 05:23:08 10° 283° (WNW) 1,941 ? -7.1°
Maximum altitude 05:23:12 10° 282° (WNW) 1,941 ? -7.1°
Sets 05:28:03 0° 231° (SW) 2,845 ? -5.9°
